This demonstration page uses our WeatherBlox Daily Observations layout. Learn more.

Left ArrowRight Arrow

Hourly Observations for December 16, 2015

Temp ( °F °C ) Dew Point ( °F °C ) Humidity (%) Winds ( mph kmh ) Pressure ( in mb ) Visibility ( mi km ) Precip ( " mm )
12:53 am 00:53 Clear 41 5 29 -1.7 62 62 NNW 6 9 30.20 1023 10 16 0.00 0.00
1:53 am 01:53 Clear 42 5.6 31 -0.6 65 65 Calm 30.20 1023 10 16 0.00 0.00
2:53 am 02:53 Clear 41 5 30 -1.1 65 65 NW 3 6 30.19 1023 10 16 0.00 0.00
3:53 am 03:53 Clear 38 3.3 30 -1.1 73 73 Calm 30.19 1022 10 16 0.00 0.00
4:53 am 04:53 Clear 34 1.1 29 -1.7 82 82 Calm 30.18 1022 10 16 0.00 0.00
5:53 am 05:53 Cloudy 36 2.2 30 -1.1 79 79 Calm 30.19 1022 10 16 0.00 0.00
6:53 am 06:53 Cloudy 36 2.2 30 -1.1 79 79 SSE 6 9 30.22 1023 10 16 0.00 0.00
7:53 am 07:53 Sunny 37 2.8 30 -1.1 76 76 SSW 3 6 30.25 1025 10 16 0.00 0.00
8:53 am 08:53 Sunny 41 5 32 0 70 70 Calm 30.28 1025 10 16 0.00 0.00
9:53 am 09:53 Sunny 44 6.7 32 0 63 63 SSW 3 6 30.29 1026 10 16 0.00 0.00
10:53 am 10:53 Sunny 46 7.8 32 0 58 58 Calm 30.29 1026 10 16 0.00 0.00
11:53 am 11:53 Sunny 48 8.9 32 0 54 54 Calm 30.28 1025 10 16 0.00 0.00
12:53 pm 12:53 Sunny 50 10 30 -1.1 46 46 Calm 30.25 1024 10 16 0.00 0.00
1:53 pm 13:53 Sunny 50 10 31 -0.6 48 48 Calm 30.23 1024 10 16 0.00 0.00
2:53 pm 14:53 Sunny 51 10.6 31 -0.6 46 46 Calm 30.22 1023 10 16 0.00 0.00
3:53 pm 15:53 Mostly Sunny 51 10.6 32 0 48 48 E 3 6 30.21 1023 10 16 0.00 0.00
4:53 pm 16:53 Cloudy 50 10 33 0.6 52 52 ENE 3 6 30.21 1023 10 16 0.00 0.00
5:53 pm 17:53 Cloudy 47 8.3 34 1.1 61 61 Calm 30.22 1024 10 16 0.00 0.00
6:53 pm 18:53 Cloudy 47 8.3 36 2.2 66 66 NNE 3 6 30.23 1024 10 16 0.00 0.00
7:53 pm 19:53 Cloudy 47 8.3 36 2.2 66 66 Calm 30.24 1024 10 16 0.00 0.00
8:53 pm 20:53 Cloudy 47 8.3 35 1.7 63 63 Calm 30.25 1025 10 16 0.00 0.00
9:53 pm 21:53 Cloudy 46 7.8 37 2.8 71 71 Calm 30.25 1024 10 16 0.00 0.00
10:53 pm 22:53 Cloudy 44 6.7 36 2.2 73 73 Calm 30.25 1024 10 16 0.00 0.00
11:53 pm 23:53 Cloudy 42 5.6 35 1.7 76 76 Calm 30.24 1024 10 16 0.00 0.00

Powered by AerisWeather